This demonstration page uses our WeatherBlox Daily Observations layout. Learn more.

Left ArrowRight Arrow

Hourly Observations for October 27, 2021

Temp ( °F °C ) Dew Point ( °F °C ) Humidity (%) Winds ( mph kmh ) Pressure ( in mb ) Visibility ( mi km ) Precip ( " mm )
12:53 am 00:53 Clear 35 1.7 33 0.6 93 93 N N/A 30.04 1017 10 16 N/A
1:53 am 01:53 Clear 34 1.1 33 0.6 97 97 N N/A 30.04 1017 10 16 N/A
2:53 am 02:53 Clear 33 0.6 32 undefined 96 96 N N/A 30.04 1017 10 16 N/A
3:53 am 03:53 Clear 32 undefined 31 -0.6 96 96 N N/A 30.04 1017 10 16 N/A
4:53 am 04:53 Clear 31 -0.6 30 -1.1 96 96 N N/A 30.04 1017 10 16 N/A
5:53 am 05:53 Clear 31 -0.6 30 -1.1 96 96 N N/A 30.05 1018 9 14 N/A
6:53 am 06:53 Clear 30 -1.1 29 -1.7 96 96 N N/A 30.06 1018 8 13 N/A
7:53 am 07:53 Clear 30 -1.1 29 -1.7 96 96 N N/A 30.08 1019 9 14 N/A
8:53 am 08:53 Sunny 33 0.6 32 undefined 96 96 N N/A 30.08 1019 9 14 N/A
9:53 am 09:53 Sunny 41 5 37 2.8 86 86 N N/A 30.10 1019 10 16 N/A
10:53 am 10:53 Sunny 47 8.3 39 3.9 74 74 N N/A 30.10 1019 10 16 N/A
11:53 am 11:53 Sunny 51 10.6 39 3.9 64 64 E 7 11 30.09 1019 10 16 N/A
12:53 pm 12:53 Sunny 53 11.7 39 3.9 59 59 E 6 9 30.06 1018 10 16 N/A
1:53 pm 13:53 Sunny 55 12.8 41 5 59 59 NE 7 11 30.02 1017 10 16 N/A
2:53 pm 14:53 Sunny 56 13.3 40 4.4 55 55 VRB 3 6 29.99 1016 10 16 N/A
3:53 pm 15:53 Sunny 57 13.9 42 5.6 58 58 E 10 17 29.96 1015 10 16 N/A
4:53 pm 16:53 Mostly Sunny 55 12.8 43 6.1 64 64 E 12 19 29.95 1014 10 16 N/A
5:53 pm 17:53 Partly Cloudy 52 11.1 43 6.1 72 72 E 12 19 29.94 1014 10 16 N/A
6:00 pm 18:00 Mostly Cloudy 52 11.1 43 6.1 72 72 E 10 17 29.94 1014 10 16 N/A
6:53 pm 18:53 Cloudy 50 10 43 6.1 77 77 E 10 17 29.95 1014 10 16 N/A
7:53 pm 19:53 Cloudy 50 10 43 6.1 77 77 E 8 13 29.98 1015 10 16 N/A
8:53 pm 20:53 Cloudy 50 10 43 6.1 77 77 E 10 17 29.95 1014 10 16 N/A
9:53 pm 21:53 Cloudy 50 10 43 6.1 77 77 E 10 17 29.92 1013 10 16 N/A
10:53 pm 22:53 Cloudy 50 10 44 6.7 80 80 E 10 17 29.90 1012 10 16 N/A
11:53 pm 23:53 Cloudy 50 10 44 6.7 80 80 E 10 17 29.88 1012 10 16 N/A

Powered by AerisWeather